User: anonymous   Login
Location: RyutenAO
(34.8939°N, 134.0022°E)
Time: 12:19:28
(UTC+09:00)
Language:

Oscar 19 - Orbit

View from above orbital plane
View from above orbital plane
View from above satellite
View from above satellite

Ground track
Ground track

The orbit data is extracted from the following two-line orbital elements,

1 20442U 90005G   24170.89879541  .00000228  00000-0  99044-4 0  9993
2 20442  98.8820 161.2109 0011703 175.1971 184.9327 14.33553725798020
Epoch (UTC): 18 June 2024 21:34:15
Eccentricity: 0.0011703
inclination: 98.8820°
perigee height: 771 km
apogee height: 788 km
right ascension of ascending node: 161.2109°
argument of perigee: 175.1971°
revolutions per day: 14.33553725
mean anomaly at epoch: 184.9327°
orbit number at epoch: 79802

The dashed part of the orbit path shows where the satellite is in the earth's shadow,  

DLR